Find Starlink 34716

NORAD ID: 65352 Int'l Des: 2025-190 Owner: SPXS Country: US Constellation: starlink operational
LEOCIRCULAR

現在のビュー

3D地球を読み込み中...

About Starlink 34716

Starlink 34716 (NORAD 65352) is a starlink constellation satellite (v2 mini) launched Aug 28, 2025 by SPXS of US. It operates in LEO, CIRCULAR orbit with a mass of 575.00 kg.

次回通過

Passes for default location (London). Set your location on the main map for personalized predictions.

高度履歴

Loading altitude history...

軌道要素

1 65352U 25190B 26265.48790665 .00010852 00000-0 33190-3 0 9999
2 65352 53.1578 332.1110 0001142 79.7992 280.3140 15.34395432 59915
Epoch: Sep 22, 2026 • Age: 8 hours

現在のステータス

高度 463.7 km
遠地点 / 近地点 N/A
速度 7.64 km/s
衛星直下点 29.54°N, 58.5°E
打ち上げ日 Aug 28, 2025
運用期間 1 year
タイプ internet

技術仕様

分類 Payload
質量 575.00 kg
乾燥質量 530.00 kg
長さ 0.30 m
スパン 29.00 m
形状 ? Box + pan
製造者 SPXS
バスタイプ Starlink V2MO
フェーズステータス In Orbit
所有者/国 SPXS/US

Most Searched